Location: Unspecified
(40.7945°N, 0.0000°E)
Time: 02:31:18
(UTC+00:00)

AIST 2D - Pass Details

Date: 29 July 2019
Orbit: 458 x 470 km, 97.2° (Epoch: 20 August)

Event Time Altitude Azimuth Distance (km) Brightness Sun altitude
Rises 22:45:05 0° 13° (NNE) 2,520 ? -27.6°
Reaches altitude 10° 22:47:09 10° 15° (NNE) 1,639 ? -27.8°
Enters shadow 22:48:28 21° 18° (NNE) 1,096 ? -27.9°
